CAPE
0 0 0 0 0 0 0 0 0 0 5 0 0 0 26 62 0 3 3 3 3 2 2 0 0 0 0 0 0 0 0 0 0 0 0 0 0 0 0 0 0 0 0 0
0 0 0 0 0 0 0 0 0 0 0 2 29 73 69 46 35 0 0 0 0 0 0 0 0 0 0 0 0 0 0 0 0 0 0 0 1 1 0 0 0 0 0 0
0 0 0 0 2 0 0 0 0 1 6 70 33 8 63 133 57 0 0 0 0 0 0 0 0 0 0 0 0 0 0 0 0 0 0 0 0 0 0 0 0 0 0 0
21 3 2 0 0 0 0 0 0 3 3 67 1 0 0 7 29 0 0 0 0 0 0 0 0 0 0 0 0 0 0 0 0 0 0 0 0 0 0 0 0 0 0 0
30 9 0 0 1 17 13 2 0 0 25 15 7 0 5 0 0 0 0 0 0 0 0 0 0 0 0 0 0 0 0 0 0 0 0 0 0 0 0 0 2 0 1 0
13 0 0 0 12 17 1 12 14 2 7 3 1 19 68 0 0 0 0 0 0 0 0 0 0 0 0 0 0 0 0 0 0 1 0 0 3 0 1 0 4 8 1 0
21 28 4 0 25 2 6 34 31 22 19 11 10 21 0 0 0 0 0 0 0 0 0 0 0 0 0 0 0 0 0 0 0 0 2 3 3 4 2 1 0 4 9 0
34 51 22 9 20 11 71 38 14 29 30 27 17 0 0 0 0 0 0 0 0 0 0 0 0 0 0 0 0 0 0 0 0 0 0 0 0 0 2 0 3 0 0 2
53 63 60 119 46 26 65 40 38 31 16 5 0 0 0 0 0 0 0 0 0 0 0 0 0 0 0 0 0 0 0 0 0 0 0 0 0 0 0 0 0 0 6 0
107 34 1 38 5 13 50 62 52 12 0 0 6 0 0 0 0 0 0 0 0 0 0 0 0 0 0 0 0 0 0 0 0 0 0 0 0 0 0 0 0 0 0 2
41 66 44 19 45 79 65 58 27 10 0 0 2 0 0 0 0 0 0 0 0 0 0 0 0 0 0 0 0 0 0 0 0 0 0 0 0 0 0 0 0 0 0 0
106 145 152 152 183 82 50 17 5 7 0 0 0 0 0 0 0 0 0 0 0 0 0 0 0 0 0 0 0 0 0 0 0 0 0 0 0 0 0 0 0 0 0 0
0 11 41 112 149 63 15 8 1 0 0 0 0 0 0 0 0 0 0 0 0 0 0 0 0 0 0 0 0 0 0 0 0 0 0 0 1 1 3 0 0 0 0 0
1 13 27 27 36 22 35 0 0 0 0 0 0 0 0 0 0 0 0 0 0 0 0 0 0 0 0 0 0 0 0 0 3 3 0 0 2 2 3 0 4 3 0 0
0 0 0 0 6 16 48 0 0 0 0 0 0 0 0 0 0 0 0 0 0 0 0 0 0 0 0 0 0 0 3 0 1 8 0 0 2 1 1 1 0 0 0 0
1 4 7 12 14 35 9 0 0 0 0 0 0 0 0 0 0 0 0 0 0 0 0 0 0 0 0 0 0 0 0 0 0 5 4 3 3 2 0 0 0 0 0 0
29 27 26 32 79 34 0 0 0 0 0 0 0 0 0 0 0 0 0 0 0 0 0 0 0 0 0 0 0 9 11 0 0 3 1 0 0 0 0 0 0 0 0 0
9 15 18 10 57 0 0 0 0 0 0 0 0 0 0 0 0 0 0 0 0 0 0 0 0 0 0 0 0 0 0 0 0 0 0 0 0 0 0 0 0 0 0 0
101 9 8 67 19 0 0 0 0 0 0 0 0 0 0 0 0 0 0 0 0 0 1 0 0 0 0 0 0 0 0 0 0 0 0 0 1 0 0 0 0 0 0 0
75 114 5 0 0 0 0 0 0 0 0 0 0 0 0 0 0 0 0 0 0 0 0 0 0 1 0 0 0 0 0 0 0 0 0 0 0 0 0 0 0 0 0 0
0 0 0 0 0 0 0 0 0 0 0 0 0 0 0 0 0 0 0 1 0 0 0 0 0 0 0 0 0 0 1 0 1 1 0 1 1 0 0 0 0 0 0 0
0 0 0 0 0 1 1 0 0 1 1 0 1 0 0 1 0 0 0 1 1 0 0 0 0 0 0 0 0 1 0 0 0 0 0 0 0 0 0 0 0 0 0 0
2 2 1 1 1 2 1 2 2 1 0 4 0 0 0 2 1 0 2 1 1 0 1 0 0 0 0 1 0 0 0 0 0 0 0 0 0 0 0 0 0 0 0 0
1 1 3 1 0 1 2 2 2 1 0 0 0 0 1 1 1 2 0 0 0 2 0 0 0 0 0 0 0 0 0 1 0 0 0 0 0 0 0 0 0 0 0 0
0 0 0 3 3 5 4 3 3 3 1 1 0 0 0 1 1 1 0 0 0 0 2 0 0 0 1 2 1 0 1 0 0 0 0 0 0 0 0 0 0 0 0 0
3 5 3 3 3 2 1 0 0 1 0 3 4 3 13 1 1 1 2 1 0 0 1 0 0 0 2 0 0 0 0 0 0 0 0 0 0 0 0 0 0 0 0 0
2 0 2 0 0 0 0 1 1 3 2 5 5 16 7 5 3 1 0 5 2 1 2 5 3 0 0 0 0 0 0 0 0 0 0 0 0 0 0 0 0 0 0 0
CIN
-0 -0 -0 -0 -0 -0 -0 -0 -0 -0 -1 -0 -0 -0 -5 -28 -0 -0 -0 -0 -0 -0 -0 -0 -0 -0 -0 -0 -0 -0 -0 -0 -0 -0 -0 -0 -0 -0 -0 -0 -0 -0 -0 -0
-0 -0 -0 -0 -0 -0 -0 -0 -0 -0 -0 -8 -1 -18 -9 -31 -29 -0 -0 -0 -0 -0 -0 -0 -0 -0 -0 -0 -0 -0 -0 -0 -0 -0 -0 -0 -6 -2 -0 -0 -0 -0 -0 -0
-0 -0 -0 -0 -11 -0 -0 -0 -0 -0 -0 -37 -58 -39 -34 -11 -3 -1 -0 -0 -0 -0 -0 -0 -0 -0 -0 -0 -0 -0 -0 -0 -0 -0 -0 -0 -0 -0 -0 -0 -0 -0 -0 -0
-1 -0 -0 -0 -0 -0 -0 -0 -0 -1 -4 -15 -29 -0 -0 -29 -8 -0 -0 -0 -0 -0 -0 -0 -0 -0 -0 -0 -0 -0 -0 -0 -0 -0 -0 -0 -0 -0 -0 -1 -0 -0 -0 -0
-0 -0 -0 -0 -1 -2 -2 -1 -0 -0 -3 -7 -3 -0 -1 -0 -0 -0 -0 -0 -0 -0 -0 -0 -0 -0 -0 -0 -0 -0 -0 -0 -0 -0 -0 -0 -0 -0 -0 -1 -1 -0 -1 -0
-2 -0 -0 -0 -4 -3 -35 -14 -21 -11 -22 -16 -0 -1 -5 -0 -0 -0 -0 -0 -0 -0 -0 -0 -0 -0 -0 -0 -0 -0 -0 -0 -0 -1 -0 -0 -2 -0 -2 -0 -2 -1 -0 -0
-13 -0 -0 -0 -2 -6 -5 -6 -20 -1 -0 -0 -5 -1 -0 -0 -0 -0 -0 -0 -0 -0 -0 -0 -0 -0 -0 -0 -0 -0 -0 -0 -0 -6 -11 -6 -4 -4 -6 -1 -4 -2 -2 -0
-3 -0 -0 -1 -10 -8 -3 -4 -2 -1 -2 -1 -10 -0 -0 -0 -0 -0 -0 -0 -0 -0 -0 -0 -0 -0 -0 -0 -0 -0 -0 -0 -0 -0 -0 -0 -0 -1 -9 -2 -2 -2 -1 -1
-3 -1 -29 -3 -45 -28 -0 -1 -3 -9 -19 -22 -0 -0 -0 -0 -0 -0 -0 -0 -0 -0 -0 -0 -0 -0 -0 -0 -0 -0 -0 -0 -0 -0 -0 -0 -0 -0 -0 -0 -0 -0 -0 -0
-4 -4 -1 -0 -4 -1 -0 -3 -5 -8 -0 -0 -4 -0 -0 -0 -0 -0 -0 -0 -0 -0 -0 -0 -0 -0 -0 -0 -0 -0 -0 -0 -0 -0 -0 -0 -0 -0 -0 -0 -0 -0 -0 -0
-9 -8 -11 -10 -5 -4 -5 -8 -8 -4 -0 -0 -5 -0 -0 -0 -0 -0 -0 -0 -0 -0 -0 -0 -0 -0 -0 -0 -0 -0 -0 -0 -0 -0 -0 -0 -0 -0 -0 -0 -0 -0 -0 -0
-0 -7 -2 -1 -5 -15 -0 -18 -14 -0 -0 -0 -0 -0 -0 -0 -0 -0 -0 -0 -0 -0 -0 -0 -0 -0 -0 -0 -0 -0 -0 -0 -0 -0 -0 -0 -0 -0 -0 -0 -0 -0 -0 -0
-0 -3 -9 -23 -10 -1 -15 -29 -1 -0 -0 -0 -0 -0 -0 -0 -0 -0 -0 -0 -0 -0 -0 -0 -0 -0 -0 -0 -0 -0 -0 -0 -0 -0 -0 -0 -2 -2 -1 -0 -0 -0 -0 -0
-0 -0 -0 -0 -0 -3 -3 -1 -0 -0 -0 -0 -0 -0 -0 -0 -0 -0 -0 -0 -0 -0 -0 -0 -0 -0 -0 -0 -0 -0 -0 -0 -1 -2 -2 -3 -2 -3 -2 -3 -1 -0 -0 -0
-0 -0 -0 -3 -10 -9 -18 -0 -0 -0 -0 -0 -0 -0 -0 -0 -0 -0 -0 -0 -0 -0 -0 -0 -0 -0 -0 -0 -0 -1 -0 -0 -3 -2 -0 -0 -7 -4 -2 -1 -0 -0 -0 -0
-0 -0 -0 -1 -1 -4 -30 -0 -0 -0 -0 -0 -0 -0 -0 -0 -0 -0 -0 -0 -0 -0 -0 -0 -0 -0 -0 -0 -0 -0 -0 -0 -0 -3 -4 -3 -5 -6 -1 -0 -0 -0 -0 -0
-0 -0 -1 -2 -2 -29 -15 -0 -0 -0 -0 -0 -0 -0 -0 -0 -0 -0 -0 -0 -0 -0 -0 -0 -0 -0 -0 -0 -0 -2 -1 -0 -0 -2 -3 -0 -0 -4 -0 -0 -0 -0 -0 -0
-0 -1 -1 -3 -9 -0 -0 -0 -0 -0 -0 -0 -0 -0 -0 -0 -0 -0 -0 -0 -0 -0 -0 -0 -0 -0 -0 -0 -0 -0 -0 -0 -0 -0 -0 -0 -0 -0 -0 -0 -0 -0 -0 -0
-0 -0 -2 -15 -38 -0 -0 -0 -0 -0 -0 -0 -0 -0 -0 -0 -0 -0 -0 -0 -0 -0 -0 -0 -0 -0 -0 -0 -0 -0 -0 -0 -0 -0 -0 -0 -3 -2 -0 -0 -0 -0 -0 -0
-25 -19 -8 -0 -0 -0 -0 -0 -0 -0 -0 -0 -0 -0 -0 -0 -0 -0 -0 -0 -0 -0 -0 -0 -0 -0 -0 -0 -0 -0 -0 -0 -0 -0 -0 -0 -0 -0 -0 -0 -0 -0 -0 -0
-0 -0 -0 -0 -0 -0 -0 -0 -0 -0 -0 -0 -0 -0 -0 -0 -0 -0 -0 -0 -0 -0 -0 -0 -0 -0 -0 -0 -0 -0 -0 -1 -1 -0 -1 -1 -1 -0 -0 -0 -0 -0 -0 -0
-0 -0 -0 -0 -0 -0 -0 -0 -0 -0 -0 -0 -0 -0 -0 -0 -0 -0 -0 -0 -0 -0 -0 -0 -1 -0 -0 -0 -0 -0 -0 -0 -0 -0 -0 -0 -0 -0 -0 -0 -0 -0 -0 -0
-0 -0 -0 -0 -0 -0 -0 -0 -0 -0 -0 -0 -0 -0 -0 -0 -0 -0 -0 -0 -0 -0 -0 -0 -0 -0 -0 -2 -0 -0 -0 -0 -0 -0 -0 -0 -0 -0 -0 -0 -0 -0 -0 -0
-0 -0 -0 -0 -0 -0 -0 -0 -0 -0 -1 -0 -0 -0 -0 -0 -0 -1 -0 -0 -0 -1 -0 -0 -0 -0 -0 -0 -1 -1 -0 -0 -1 -1 -0 -0 -0 -0 -0 -0 -0 -0 -0 -0
-0 -0 -0 -0 -0 -0 -0 -0 -0 -0 -0 -0 -0 -0 -0 -0 -1 -2 -1 -0 -0 -0 -0 -0 -0 -0 -1 -0 -0 -1 -0 -1 -0 -0 -0 -0 -0 -0 -0 -0 -0 -0 -0 -0
-0 -0 -0 -0 -0 -0 -0 -0 -0 -0 -0 -0 -0 -1 -1 -3 -0 -0 -0 -0 -0 -0 -0 -0 -0 -0 -0 -0 -0 -0 -0 -0 -0 -0 -0 -0 -0 -0 -0 -0 -0 -0 -0 -0
-0 -0 -0 -0 -0 -0 -0 -0 -0 -0 -0 -0 -0 -0 -0 -0 -0 -0 -0 -0 -0 -0 -0 -0 -0 -0 -0 -0 -0 -0 -0 -0 -0 -0 -0 -0 -0 -0 -0 -0 -0 -0 -0 -0
Wind_Speed
12 13 13 14 14 11 15 15 15 17 15 17 17 18 10 9 14 13 10 10 9 8 6 5 5 4 2 4 4 5 6 5 3 4 2 2 3 2 4 8 11 10 12 14
4 12 14 18 11 16 17 17 18 20 19 18 15 11 11 5 9 13 11 12 11 10 8 7 6 4 4 5 4 5 6 6 7 8 8 5 5 6 8 7 9 12 11 15
12 13 14 14 10 12 17 16 16 15 16 11 10 11 11 9 6 8 10 10 11 10 9 6 5 4 3 5 5 6 6 7 8 8 8 8 9 9 9 9 9 12 14 13
9 10 15 9 14 13 15 12 15 13 15 8 3 7 8 9 3 7 11 12 10 6 7 6 5 5 3 5 8 7 7 7 8 7 8 8 9 9 8 9 10 11 12 14
8 9 13 17 12 12 13 13 9 11 10 10 7 3 8 5 6 5 8 11 10 8 6 4 5 5 6 6 6 7 6 5 7 8 7 8 8 9 8 7 7 8 9 12
7 10 8 9 2 10 5 6 8 8 7 8 12 9 2 4 5 7 10 11 11 11 9 8 6 7 8 6 3 4 6 5 2 4 5 5 6 6 7 7 7 5 8 8
10 10 11 13 6 7 7 2 4 3 7 8 6 4 5 7 6 7 9 11 12 12 10 9 9 8 8 8 3 2 5 6 4 2 4 3 2 4 4 4 5 6 7 7
12 14 16 13 1 5 3 4 6 6 3 6 7 6 5 7 8 9 10 11 10 8 7 7 8 7 7 6 7 6 6 6 5 4 4 5 6 6 5 5 4 5 8 7
9 5 6 7 7 8 11 8 5 5 7 5 2 6 8 8 9 9 11 9 9 8 8 6 6 5 8 5 6 6 6 6 5 5 5 5 7 7 6 8 6 7 7 7
5 3 6 6 4 8 7 6 6 3 4 4 5 9 9 10 9 8 10 10 8 10 9 7 5 3 8 5 5 5 5 4 5 4 4 6 6 6 5 5 6 6 7 7
8 8 10 10 8 5 6 9 8 3 4 6 7 12 12 10 11 10 10 9 8 8 8 8 8 7 6 5 4 6 5 4 4 4 4 5 5 4 5 4 5 4 4 5
5 7 8 9 7 5 10 7 9 6 5 6 7 12 12 10 10 10 9 9 8 8 8 9 9 7 6 4 4 5 4 5 3 3 3 3 2 5 7 7 7 8 9 6
13 12 13 8 11 15 7 7 7 7 7 8 8 9 12 9 10 9 10 9 9 9 8 9 8 7 6 6 6 7 6 4 3 4 3 3 3 3 2 3 4 4 6 11
15 15 16 16 10 14 7 5 5 6 6 7 8 9 10 10 9 9 9 9 8 9 9 9 11 8 6 7 6 5 5 4 3 3 3 3 3 2 2 2 1 4 5 10
17 17 17 16 17 14 8 7 8 8 6 5 6 8 10 10 9 8 8 6 7 9 8 11 10 6 6 5 5 3 3 4 2 2 3 1 2 2 2 2 2 2 2 8
17 17 17 16 16 8 10 9 9 8 6 5 7 10 10 9 9 9 8 8 9 9 9 8 8 6 4 4 4 4 3 4 1 1 1 2 2 2 2 3 3 3 5 5
17 14 13 14 6 6 9 8 8 6 7 7 9 10 9 9 9 9 9 8 10 10 10 9 7 4 4 2 3 2 3 5 1 1 3 3 3 2 2 2 2 3 4 2
18 17 14 13 8 7 7 9 7 9 8 10 12 10 11 12 11 10 10 11 10 8 7 8 7 5 3 3 3 3 2 2 2 2 2 3 3 2 2 3 4 4 3 3
12 16 14 8 7 9 11 10 9 9 11 11 12 12 11 10 12 11 11 10 9 9 8 9 10 8 7 4 2 2 3 2 2 3 2 2 2 2 3 3 3 3 4 4
10 4 12 9 9 11 10 10 12 12 12 12 11 12 11 11 11 11 10 9 8 6 12 10 10 8 8 5 2 4 3 2 2 3 3 3 4 2 2 2 2 3 3 4
10 12 14 13 12 12 12 11 13 12 11 12 12 11 11 11 11 11 10 8 6 12 11 11 7 6 5 5 3 4 3 3 2 2 2 2 1 2 2 2 3 3 3 3
8 10 11 11 11 11 9 10 11 11 11 10 10 10 12 11 10 9 6 6 9 10 8 7 6 7 7 3 4 4 3 3 3 2 2 1 1 2 3 3 3 4 3 3
8 9 9 9 10 10 10 9 9 10 11 10 11 11 10 8 8 8 7 10 9 9 7 7 9 10 6 3 4 3 4 2 2 2 1 2 2 3 2 3 3 2 3 4
8 8 9 10 10 10 10 8 8 8 7 9 8 9 9 8 7 5 8 11 12 9 9 8 8 8 4 4 3 3 3 3 3 2 5 2 1 2 2 2 2 3 3 4
8 8 9 9 9 7 11 11 10 10 10 10 10 8 9 6 6 7 9 10 16 11 9 8 8 5 4 4 4 4 2 3 4 3 2 3 2 2 2 3 2 3 2 2
10 7 7 8 7 8 8 8 7 7 8 8 7 6 5 7 8 9 9 11 10 12 8 6 5 4 4 4 4 2 3 5 3 2 3 0 2 0 2 3 2 2 2 2
6 6 6 6 6 6 7 7 8 8 8 8 8 6 8 9 9 9 10 9 8 8 7 6 5 4 5 4 4 3 1 5 4 3 2 2 1 1 2 2 2 2 2 1
Wind_Direction
272 287 303 287 281 294 277 277 266 284 281 302 303 288 292 61 132 144 170 177 181 171 164 205 195 192 127 78 38 51 49 50 126 198 292 350 8 93 58 34 24 26 25 23
289 272 269 270 270 268 261 263 269 279 279 266 286 15 18 50 147 164 169 182 176 157 174 198 165 134 99 84 49 58 54 44 41 35 30 25 43 43 56 47 42 23 28 28
257 257 270 261 229 233 255 266 266 267 274 30 8 4 12 348 202 176 157 159 171 175 157 164 119 120 99 100 65 47 55 47 37 39 35 27 27 41 33 48 37 40 26 32
268 293 269 263 263 255 257 242 241 276 317 73 53 344 21 359 87 141 165 171 129 114 124 138 131 102 125 95 94 64 34 39 37 41 37 34 28 26 41 28 44 35 35 26
243 250 274 282 269 243 246 257 317 323 2 7 18 331 97 45 69 108 135 126 144 129 119 124 122 128 83 56 91 88 84 30 37 33 38 33 33 20 26 36 37 46 41 35
231 248 257 254 282 44 4 280 50 41 15 343 335 308 20 126 152 129 128 134 146 154 167 159 161 136 120 112 72 99 115 113 2 71 56 28 21 37 22 25 23 51 53 53
232 252 265 275 282 152 238 29 124 267 320 347 321 344 131 164 120 137 146 144 146 161 172 162 153 143 143 132 138 118 87 116 128 131 163 123 8 36 52 29 18 24 57 56
227 246 257 253 46 263 353 190 283 285 296 327 330 142 146 137 154 167 154 144 154 164 140 136 159 166 142 120 129 128 114 103 74 75 47 66 54 30 24 23 30 31 34 36
202 213 38 7 27 351 310 309 342 317 334 345 154 165 164 143 160 171 159 155 167 151 144 152 163 157 131 112 125 120 106 90 63 87 52 41 72 51 31 17 28 22 29 26
276 278 281 228 240 275 324 341 350 359 324 284 178 154 147 157 177 172 164 167 167 149 156 153 111 95 118 128 131 123 109 85 98 75 83 67 46 71 52 31 22 34 17 22
270 283 273 280 308 12 338 329 310 219 288 261 181 168 165 182 188 184 169 153 157 156 157 153 153 124 128 140 143 117 105 87 81 60 34 97 85 38 91 61 48 53 29 31
251 256 264 268 317 303 293 301 296 267 219 224 216 168 169 178 184 179 159 156 166 162 154 147 137 137 138 130 113 124 106 86 23 53 47 37 47 139 74 114 89 86 71 58
278 283 279 266 234 238 238 275 247 244 218 196 193 166 165 167 172 168 156 163 174 152 149 140 130 110 77 56 58 48 82 70 99 49 32 30 25 21 83 153 130 99 80 51
275 276 266 268 257 248 234 212 156 214 218 196 183 158 153 158 147 164 154 164 167 148 138 136 105 90 71 76 88 98 109 70 53 58 45 15 10 12 29 15 36 154 111 59
267 276 281 281 285 287 145 169 174 205 187 186 141 135 128 136 154 145 138 137 116 118 105 104 114 125 133 138 140 118 115 69 349 71 95 275 318 13 30 15 13 37 9 54
257 263 268 252 248 209 161 181 184 193 160 156 137 127 137 155 149 146 142 137 153 147 140 119 133 147 134 116 134 148 112 113 104 19 64 23 15 12 27 21 1 26 60 45
251 260 271 277 201 192 187 170 173 160 145 149 134 135 150 132 107 95 88 84 95 98 113 124 121 101 112 151 232 106 125 131 124 270 67 50 357 20 17 23 12 24 74 125
257 263 245 261 185 170 150 138 141 141 148 139 140 129 124 134 129 119 111 107 104 111 129 127 129 128 159 157 277 97 107 100 91 58 60 55 11 17 25 19 15 15 10 37
262 232 238 160 166 148 140 145 142 132 118 124 129 133 134 126 129 128 124 124 135 145 142 140 154 162 153 126 193 122 107 100 107 98 33 162 225 23 44 43 22 355 12 11
287 79 101 99 95 126 117 107 117 120 127 124 120 128 129 132 138 138 138 154 171 162 145 150 170 164 132 147 260 112 112 108 100 103 83 342 70 345 30 73 39 11 13 10
61 72 84 91 89 91 107 128 127 130 133 132 141 146 142 142 144 145 153 169 123 136 144 157 181 127 142 142 170 98 106 104 84 79 81 51 61 22 24 39 30 12 11 6
79 87 95 98 101 103 111 118 121 129 137 144 144 144 138 143 151 165 191 155 147 147 146 172 150 135 114 164 109 119 118 99 81 55 82 77 39 18 24 31 33 24 353 9
92 98 101 105 111 112 111 117 128 138 149 151 146 147 155 157 166 173 167 141 140 146 164 102 110 107 131 111 109 106 101 112 131 119 109 71 41 54 15 23 33 339 10 16
111 114 109 108 113 115 118 124 130 134 131 131 142 156 155 158 172 179 129 136 140 140 107 125 121 122 153 116 126 122 157 147 150 141 91 144 23 69 36 26 37 17 19 18
116 120 130 141 141 137 140 144 138 140 148 148 156 168 158 165 163 124 128 121 114 114 110 111 117 140 143 139 146 157 148 70 51 16 86 57 53 54 17 45 39 34 342 286
146 146 153 161 133 143 144 149 143 153 141 143 148 153 133 102 110 113 115 122 117 118 125 140 152 181 129 125 128 135 127 121 155 103 42 340 74 10 56 62 12 328 8 21
133 136 141 117 135 141 155 156 150 151 147 149 146 142 123 121 118 118 127 129 130 126 147 155 152 159 126 138 127 127 165 94 49 33 67 55 64 26 67 50 17 21 351 323